When you browse on this site, cookies collect data to enhance your experience and personalize the content and advertising you see.
Visit our Privacy Policy to learn more. By continuing to use the site, you agree to this use of cookies and data.
  • In Österreich
  • Länderverzeichnis
  • Für 7 Tage
  • Wassertemperatur
  • Satellitenkarten
  • Wetterkarte
  • News
  • Widgets
  • user-avatar
    Anmelden

    Stündliche Wetter Maleshev

    Heute, 24 Mai, Freitag

    Zeit Temperatur Niederschläge Wind Luftdruck Luftfeuchtigkeit
    00:00 +16°C° 0 mm 1 m/S 745 mmHg 89%
    01:00 +15°C° 0 mm 1 m/S 745 mmHg 90%
    02:00 +15°C° 0 mm 1 m/S 745 mmHg 90%
    03:00 +15°C° 0 mm 1 m/S 746 mmHg 91%
    04:00 +15°C° 0 mm 1 m/S 746 mmHg 92%
    05:00 +15°C° 0 mm 2 m/S 746 mmHg 93%
    06:00 +16°C° 0 mm 2 m/S 746 mmHg 89%
    07:00 +18°C° 0 mm 2 m/S 746 mmHg 84%
    08:00 +19°C° 0 mm 2 m/S 746 mmHg 80%
    09:00 +21°C° 0.4 mm 2 m/S 746 mmHg 75%
    10:00 +23°C° 0.4 mm 2 m/S 746 mmHg 69%
    11:00 +24°C° 0.4 mm 2 m/S 746 mmHg 64%
    12:00 +25°C° 0.1 mm 2 m/S 746 mmHg 63%
    13:00 +25°C° 0.1 mm 3 m/S 746 mmHg 62%
    14:00 +25°C° 0.1 mm 3 m/S 746 mmHg 61%
    15:00 +25°C° 0.3 mm 3 m/S 745 mmHg 64%
    16:00 +24°C° 0.3 mm 3 m/S 745 mmHg 66%
    17:00 +24°C° 0.3 mm 3 m/S 745 mmHg 69%
    18:00 +21°C° 0.4 mm 2 m/S 745 mmHg 77%
    19:00 +20°C° 0.4 mm 2 m/S 745 mmHg 84%
    20:00 +18°C° 0.4 mm 2 m/S 745 mmHg 92%
    21:00 +17°C° 0 mm 2 m/S 745 mmHg 93%
    22:00 +16°C° 0 mm 2 m/S 745 mmHg 95%
    23:00 +15°C° 0 mm 2 m/S 745 mmHg 97%

    Morgen, 25 Mai, Samstag

    Zeit Temperatur Niederschläge Wind Luftdruck Luftfeuchtigkeit
    00:00 +15°C° 0 mm 2 m/S 745 mmHg 97%
    01:00 +15°C° 0 mm 2 m/S 745 mmHg 97%
    02:00 +14°C° 0 mm 2 m/S 745 mmHg 98%
    03:00 +14°C° 0.1 mm 2 m/S 745 mmHg 98%
    04:00 +14°C° 0.1 mm 2 m/S 744 mmHg 98%
    05:00 +14°C° 0.1 mm 2 m/S 744 mmHg 98%
    06:00 +15°C° 0 mm 2 m/S 745 mmHg 94%
    07:00 +16°C° 0 mm 2 m/S 745 mmHg 90%
    08:00 +17°C° 0 mm 3 m/S 745 mmHg 86%
    09:00 +19°C° 0 mm 3 m/S 745 mmHg 79%
    10:00 +20°C° 0 mm 3 m/S 745 mmHg 71%
    11:00 +22°C° 0 mm 4 m/S 745 mmHg 63%
    12:00 +23°C° 0 mm 4 m/S 745 mmHg 60%
    13:00 +23°C° 0 mm 4 m/S 744 mmHg 56%
    14:00 +25°C° 0 mm 5 m/S 744 mmHg 53%
    15:00 +23°C° 0 mm 4 m/S 744 mmHg 53%
    16:00 +23°C° 0 mm 4 m/S 744 mmHg 53%
    17:00 +23°C° 0 mm 4 m/S 744 mmHg 53%
    18:00 +21°C° 0 mm 3 m/S 744 mmHg 60%
    19:00 +19°C° 0 mm 2 m/S 744 mmHg 67%
    20:00 +17°C° 0 mm 2 m/S 744 mmHg 74%
    21:00 +16°C° 0 mm 2 m/S 745 mmHg 78%
    22:00 +16°C° 0 mm 2 m/S 745 mmHg 81%
    23:00 +15°C° 0 mm 2 m/S 745 mmHg 85%

    übermorgen, 26 Mai, Sonntag

    Zeit Temperatur Niederschläge Wind Luftdruck Luftfeuchtigkeit
    00:00 +14°C° 0 mm 2 m/S 745 mmHg 87%
    01:00 +14°C° 0 mm 2 m/S 745 mmHg 90%
    02:00 +13°C° 0 mm 2 m/S 746 mmHg 93%
    03:00 +13°C° 0 mm 2 m/S 746 mmHg 94%
    04:00 +12°C° 0 mm 2 m/S 746 mmHg 94%
    05:00 +12°C° 0 mm 1 m/S 746 mmHg 94%
    06:00 +14°C° 0 mm 2 m/S 746 mmHg 85%
    07:00 +15°C° 0 mm 2 m/S 746 mmHg 76%
    08:00 +17°C° 0 mm 2 m/S 747 mmHg 67%
    09:00 +18°C° 0 mm 2 m/S 747 mmHg 65%
    10:00 +19°C° 0 mm 3 m/S 747 mmHg 62%
    11:00 +19°C° 0 mm 3 m/S 747 mmHg 60%
    12:00 +20°C° 0 mm 4 m/S 746 mmHg 57%
    13:00 +21°C° 0 mm 4 m/S 746 mmHg 54%
    14:00 +22°C° 0 mm 5 m/S 746 mmHg 51%
    15:00 +22°C° 0 mm 5 m/S 746 mmHg 52%
    16:00 +22°C° 0 mm 4 m/S 746 mmHg 53%
    17:00 +22°C° 0 mm 4 m/S 746 mmHg 54%
    18:00 +20°C° 0.1 mm 4 m/S 746 mmHg 64%
    19:00 +18°C° 0.1 mm 3 m/S 746 mmHg 73%
    20:00 +17°C° 0.1 mm 3 m/S 745 mmHg 83%
    21:00 +16°C° 0 mm 3 m/S 746 mmHg 86%
    22:00 +14°C° 0 mm 3 m/S 746 mmHg 90%
    23:00 +14°C° 0 mm 3 m/S 747 mmHg 93%

    27 Mai, Montag

    Zeit Temperatur Niederschläge Wind Luftdruck Luftfeuchtigkeit
    00:00 +13°C° 0 mm 3 m/S 747 mmHg 94%
    01:00 +13°C° 0 mm 2 m/S 747 mmHg 95%
    02:00 +13°C° 0 mm 2 m/S 747 mmHg 96%
    03:00 +12°C° 0 mm 2 m/S 747 mmHg 96%
    04:00 +12°C° 0 mm 1 m/S 748 mmHg 95%
    05:00 +12°C° 0 mm 1 m/S 748 mmHg 94%
    06:00 +14°C° 0 mm 1 m/S 748 mmHg 86%
    07:00 +16°C° 0 mm 2 m/S 748 mmHg 77%
    08:00 +17°C° 0 mm 2 m/S 748 mmHg 68%
    09:00 +19°C° 0 mm 3 m/S 748 mmHg 63%
    10:00 +20°C° 0 mm 3 m/S 748 mmHg 57%
    11:00 +22°C° 0 mm 3 m/S 749 mmHg 51%
    12:00 +24°C° 0 mm 3 m/S 748 mmHg 50%
    13:00 +25°C° 0 mm 3 m/S 748 mmHg 50%
    14:00 +26°C° 0 mm 3 m/S 748 mmHg 49%
    15:00 +25°C° 0.1 mm 3 m/S 747 mmHg 54%
    16:00 +25°C° 0.1 mm 4 m/S 747 mmHg 58%
    17:00 +25°C° 0.1 mm 4 m/S 747 mmHg 63%
    18:00 +22°C° 0.1 mm 3 m/S 747 mmHg 71%
    19:00 +21°C° 0.1 mm 3 m/S 747 mmHg 78%
    20:00 +20°C° 0.1 mm 2 m/S 747 mmHg 86%
    21:00 +19°C° 0.1 mm 2 m/S 747 mmHg 87%
    22:00 +19°C° 0.1 mm 2 m/S 747 mmHg 89%
    23:00 +18°C° 0.1 mm 2 m/S 747 mmHg 91%

    28 Mai, Dienstag

    Zeit Temperatur Niederschläge Wind Luftdruck Luftfeuchtigkeit
    00:00 +18°C° 0 mm 2 m/S 747 mmHg 91%
    01:00 +19°C° 0 mm 1 m/S 747 mmHg 92%
    02:00 +19°C° 0 mm 1 m/S 747 mmHg 92%
    03:00 +19°C° 0 mm 1 m/S 747 mmHg 93%
    04:00 +19°C° 0 mm 1 m/S 746 mmHg 93%
    05:00 +18°C° 0 mm 2 m/S 746 mmHg 93%
    06:00 +19°C° 0 mm 2 m/S 746 mmHg 90%
    07:00 +20°C° 0 mm 2 m/S 746 mmHg 87%
    08:00 +21°C° 0 mm 2 m/S 746 mmHg 84%
    09:00 +21°C° 0.2 mm 3 m/S 746 mmHg 83%
    10:00 +22°C° 0.2 mm 4 m/S 746 mmHg 83%
    11:00 +22°C° 0.2 mm 4 m/S 746 mmHg 82%
    12:00 +23°C° 0.2 mm 4 m/S 746 mmHg 76%
    13:00 +26°C° 0.2 mm 4 m/S 745 mmHg 70%
    14:00 +27°C° 0.2 mm 4 m/S 745 mmHg 63%
    15:00 +27°C° 1.2 mm 4 m/S 745 mmHg 65%
    16:00 +27°C° 1.2 mm 4 m/S 745 mmHg 67%
    17:00 +27°C° 1.2 mm 4 m/S 745 mmHg 68%
    18:00 +25°C° 0.2 mm 3 m/S 745 mmHg 71%
    19:00 +24°C° 0.2 mm 3 m/S 745 mmHg 74%
    20:00 +21°C° 0.2 mm 3 m/S 745 mmHg 77%
    21:00 +21°C° 0 mm 3 m/S 745 mmHg 78%
    22:00 +20°C° 0 mm 3 m/S 745 mmHg 80%
    23:00 +20°C° 0 mm 4 m/S 745 mmHg 82%

    29 Mai, Mittwoch

    Zeit Temperatur Niederschläge Wind Luftdruck Luftfeuchtigkeit
    00:00 +19°C° 0 mm 4 m/S 744 mmHg 82%
    01:00 +19°C° 0 mm 4 m/S 744 mmHg 81%
    02:00 +18°C° 0 mm 4 m/S 744 mmHg 81%
    03:00 +18°C° 0.4 mm 4 m/S 744 mmHg 84%
    04:00 +17°C° 0.4 mm 4 m/S 744 mmHg 87%
    05:00 +17°C° 0.4 mm 3 m/S 744 mmHg 90%
    06:00 +18°C° 0.1 mm 4 m/S 744 mmHg 88%
    07:00 +19°C° 0.1 mm 4 m/S 744 mmHg 86%
    08:00 +20°C° 0.1 mm 4 m/S 744 mmHg 84%
    09:00 +22°C° 0 mm 4 m/S 745 mmHg 76%
    10:00 +25°C° 0 mm 4 m/S 745 mmHg 68%
    11:00 +27°C° 0 mm 3 m/S 745 mmHg 60%
    12:00 +28°C° 0 mm 4 m/S 745 mmHg 56%
    13:00 +28°C° 0 mm 4 m/S 745 mmHg 52%
    14:00 +29°C° 0 mm 5 m/S 745 mmHg 48%
    15:00 +29°C° 0 mm 4 m/S 745 mmHg 51%
    16:00 +28°C° 0 mm 4 m/S 745 mmHg 53%
    17:00 +28°C° 0 mm 4 m/S 745 mmHg 56%
    18:00 +26°C° 0 mm 3 m/S 745 mmHg 64%
    19:00 +24°C° 0 mm 2 m/S 745 mmHg 71%
    20:00 +22°C° 0 mm 1 m/S 746 mmHg 79%
    21:00 +21°C° 0 mm 1 m/S 746 mmHg 82%
    22:00 +20°C° 0 mm 1 m/S 746 mmHg 86%
    23:00 +19°C° 0 mm 1 m/S 746 mmHg 89%
    Mehr zeigen